Time,TemperatureF,DewpointF,PressureIn,WindDirection,WindDirectionDegrees,WindSpeedMPH,WindSpeedGustMPH,Humidity,HourlyPrecipIn,Conditions,Clouds,dailyrainin,SolarRadiationWatts/m^2,SoftwareType,DateUTC
2014-01-12 00:12:00,70.3,68.0,30.06,WNW,298,0.0,-999.0,93,-99.99,,,0.01,0,weatherlink.com 1.10,2014-01-12 05:12:00,
2014-01-12 00:27:00,70.4,68.0,30.06,WNW,283,0.0,-999.0,92,-99.99,,,0.01,0,weatherlink.com 1.10,2014-01-12 05:27:00,
2014-01-12 00:42:00,70.5,68.0,30.05,SW,229,0.0,-999.0,90,-99.99,,,0.01,0,weatherlink.com 1.10,2014-01-12 05:42:00,
2014-01-12 00:57:00,70.7,68.0,30.05,WSW,238,0.0,-999.0,90,-99.99,,,0.01,0,weatherlink.com 1.10,2014-01-12 05:57:00,
2014-01-12 01:12:00,70.6,68.0,30.05,SW,218,1.0,-999.0,90,-99.99,,,0.01,0,weatherlink.com 1.10,2014-01-12 06:12:00,
2014-01-12 01:27:00,70.5,68.0,30.05,West,277,0.0,-999.0,90,-99.99,,,0.01,0,weatherlink.com 1.10,2014-01-12 06:27:00,
2014-01-12 01:42:00,71.2,68.0,30.06,WNW,299,0.0,-999.0,90,-99.99,,,0.01,0,weatherlink.com 1.10,2014-01-12 06:42:00,
2014-01-12 01:57:00,71.1,68.0,30.06,WNW,296,3.0,-999.0,90,-99.99,,,0.01,0,weatherlink.com 1.10,2014-01-12 06:57:00,
2014-01-12 02:12:00,70.6,68.0,30.05,WSW,255,3.0,-999.0,92,-99.99,,,0.03,0,weatherlink.com 1.10,2014-01-12 07:12:00,
2014-01-12 02:27:00,70.2,68.0,30.05,SW,224,0.0,-999.0,93,-99.99,,,0.03,0,weatherlink.com 1.10,2014-01-12 07:27:00,
2014-01-12 02:42:00,70.2,69.0,30.05,SSW,209,0.0,-999.0,94,-99.99,,,0.03,0,weatherlink.com 1.10,2014-01-12 07:42:00,
2014-01-12 02:57:00,70.5,69.0,30.05,SW,218,0.0,-999.0,94,-99.99,,,0.03,0,weatherlink.com 1.10,2014-01-12 07:57:00,
2014-01-12 03:12:00,70.4,69.0,30.05,WSW,242,0.0,-999.0,94,-99.99,,,0.00,0,weatherlink.com 1.10,2014-01-12 08:12:00,
2014-01-12 03:27:00,70.2,69.0,30.04,West,279,1.0,-999.0,94,-99.99,,,0.00,0,weatherlink.com 1.10,2014-01-12 08:27:00,
2014-01-12 03:42:00,70.1,68.0,30.05,NW,319,1.0,-999.0,94,-99.99,,,0.00,0,weatherlink.com 1.10,2014-01-12 08:42:00,
2014-01-12 03:57:00,70.3,69.0,30.05,NW,319,0.0,-999.0,95,-99.99,,,0.00,0,weatherlink.com 1.10,2014-01-12 08:57:00,
2014-01-12 04:12:00,70.5,69.0,30.05,West,273,1.0,-999.0,94,-99.99,,,0.00,0,weatherlink.com 1.10,2014-01-12 09:12:00,
2014-01-12 04:27:00,70.3,69.0,30.05,WNW,286,0.0,-999.0,94,-99.99,,,0.00,0,weatherlink.com 1.10,2014-01-12 09:27:00,
2014-01-12 04:42:00,70.2,69.0,30.05,NW,304,1.0,-999.0,94,-99.99,,,0.00,0,weatherlink.com 1.10,2014-01-12 09:42:00,
2014-01-12 04:57:00,70.1,68.0,30.05,WNW,284,0.0,-999.0,94,-99.99,,,0.00,0,weatherlink.com 1.10,2014-01-12 09:57:00,
2014-01-12 05:12:00,69.9,68.0,30.05,NNW,329,0.0,-999.0,94,-99.99,,,0.00,0,weatherlink.com 1.10,2014-01-12 10:12:00,
2014-01-12 05:27:00,69.6,68.0,30.05,NNW,334,0.0,-999.0,95,-99.99,,,0.00,0,weatherlink.com 1.10,2014-01-12 10:27:00,
2014-01-12 05:42:00,68.7,67.0,30.05,NW,311,0.0,-999.0,94,-99.99,,,0.00,0,weatherlink.com 1.10,2014-01-12 10:42:00,
2014-01-12 05:57:00,68.1,65.0,30.06,NW,319,0.0,-999.0,91,-99.99,,,0.00,0,weatherlink.com 1.10,2014-01-12 10:57:00,
2014-01-12 06:12:00,68.3,66.0,30.07,NW,318,0.0,-999.0,91,-99.99,,,0.00,0,weatherlink.com 1.10,2014-01-12 11:12:00,
2014-01-12 06:27:00,68.5,66.0,30.07,NW,321,0.0,-999.0,91,-99.99,,,0.00,0,weatherlink.com 1.10,2014-01-12 11:27:00,
2014-01-12 06:42:00,68.1,65.0,30.08,NW,325,1.0,-999.0,91,-99.99,,,0.00,0,weatherlink.com 1.10,2014-01-12 11:42:00,
2014-01-12 06:57:00,67.9,65.0,30.09,NW,323,0.0,-999.0,91,-99.99,,,0.00,0,weatherlink.com 1.10,2014-01-12 11:57:00,
2014-01-12 07:12:00,67.7,65.0,30.10,NW,311,0.0,-999.0,91,-99.99,,,0.00,0,weatherlink.com 1.10,2014-01-12 12:12:00,
2014-01-12 07:27:00,67.4,65.0,30.10,East,89,0.0,-999.0,92,-99.99,,,0.00,5,weatherlink.com 1.10,2014-01-12 12:27:00,
2014-01-12 07:42:00,67.0,64.0,30.11,NE,55,0.0,-999.0,91,-99.99,,,0.00,9,weatherlink.com 1.10,2014-01-12 12:42:00,
2014-01-12 07:57:00,66.7,64.0,30.12,NE,55,0.0,-999.0,91,-99.99,,,0.00,19,weatherlink.com 1.10,2014-01-12 12:57:00,
2014-01-12 08:12:00,66.7,64.0,30.13,NNE,25,0.0,-999.0,91,-99.99,,,0.00,21,weatherlink.com 1.10,2014-01-12 13:12:00,
2014-01-12 08:27:00,66.9,64.0,30.14,East,98,0.0,-999.0,91,-99.99,,,0.00,28,weatherlink.com 1.10,2014-01-12 13:27:00,
2014-01-12 08:42:00,67.4,64.0,30.15,NNE,24,0.0,-999.0,89,-99.99,,,0.00,33,weatherlink.com 1.10,2014-01-12 13:42:00,
2014-01-12 08:57:00,68.1,64.0,30.15,ENE,65,0.0,-999.0,87,-99.99,,,0.00,95,weatherlink.com 1.10,2014-01-12 13:57:00,
2014-01-12 09:12:00,68.5,64.0,30.16,NNE,20,0.0,-999.0,85,-99.99,,,0.00,33,weatherlink.com 1.10,2014-01-12 14:12:00,
2014-01-12 09:27:00,68.8,64.0,30.16,ENE,67,0.0,-999.0,83,-99.99,,,0.00,54,weatherlink.com 1.10,2014-01-12 14:27:00,
2014-01-12 09:42:00,69.3,63.0,30.17,North,360,0.0,-999.0,81,-99.99,,,0.00,46,weatherlink.com 1.10,2014-01-12 14:42:00,
2014-01-12 09:57:00,69.5,63.0,30.17,ESE,103,0.0,-999.0,79,-99.99,,,0.00,53,weatherlink.com 1.10,2014-01-12 14:57:00,
2014-01-12 10:12:00,70.0,63.0,30.17,East,80,0.0,-999.0,78,-99.99,,,0.00,58,weatherlink.com 1.10,2014-01-12 15:12:00,
2014-01-12 10:27:00,70.6,62.0,30.17,ESE,118,0.0,-999.0,73,-99.99,,,0.00,62,weatherlink.com 1.10,2014-01-12 15:27:00,
2014-01-12 10:42:00,71.2,62.0,30.17,NNE,14,0.0,-999.0,72,-99.99,,,0.00,482,weatherlink.com 1.10,2014-01-12 15:42:00,
2014-01-12 10:57:00,71.5,60.0,30.16,ENE,70,0.0,-999.0,68,-99.99,,,0.00,58,weatherlink.com 1.10,2014-01-12 15:57:00,
2014-01-12 11:12:00,72.1,61.0,30.16,NE,47,0.0,-999.0,67,-99.99,,,0.00,125,weatherlink.com 1.10,2014-01-12 16:12:00,
2014-01-12 11:27:00,72.7,60.0,30.15,ENE,68,0.0,-999.0,65,-99.99,,,0.00,584,weatherlink.com 1.10,2014-01-12 16:27:00,
2014-01-12 11:42:00,73.5,61.0,30.14,ENE,66,0.0,-999.0,65,-99.99,,,0.00,601,weatherlink.com 1.10,2014-01-12 16:42:00,
2014-01-12 11:57:00,74.4,60.0,30.14,ENE,61,0.0,-999.0,62,-99.99,,,0.00,617,weatherlink.com 1.10,2014-01-12 16:57:00,
2014-01-12 12:12:00,75.4,60.0,30.13,ENE,59,0.0,-999.0,60,-99.99,,,0.00,626,weatherlink.com 1.10,2014-01-12 17:12:00,
2014-01-12 12:27:00,76.2,61.0,30.13,East,81,0.0,-999.0,60,-99.99,,,0.00,635,weatherlink.com 1.10,2014-01-12 17:27:00,
2014-01-12 12:42:00,76.7,61.0,30.12,ENE,71,0.0,-999.0,59,-99.99,,,0.00,638,weatherlink.com 1.10,2014-01-12 17:42:00,
2014-01-12 12:57:00,76.8,61.0,30.11,ENE,72,0.0,-999.0,58,-99.99,,,0.00,631,weatherlink.com 1.10,2014-01-12 17:57:00,
2014-01-12 13:12:00,77.2,61.0,30.11,East,85,0.0,-999.0,58,-99.99,,,0.00,629,weatherlink.com 1.10,2014-01-12 18:12:00,
2014-01-12 13:27:00,78.0,61.0,30.10,ENE,69,0.0,-999.0,57,-99.99,,,0.00,628,weatherlink.com 1.10,2014-01-12 18:27:00,
2014-01-12 13:42:00,78.6,62.0,30.09,ENE,69,0.0,-999.0,56,-99.99,,,0.00,512,weatherlink.com 1.10,2014-01-12 18:42:00,
2014-01-12 13:57:00,79.6,61.0,30.09,ENE,63,0.0,-999.0,53,-99.99,,,0.00,526,weatherlink.com 1.10,2014-01-12 18:57:00,
2014-01-12 14:12:00,80.0,60.0,30.09,SSE,155,1.0,-999.0,51,-99.99,,,0.00,564,weatherlink.com 1.10,2014-01-12 19:12:00,
2014-01-12 14:27:00,80.7,61.0,30.09,NE,49,0.0,-999.0,52,-99.99,,,0.00,538,weatherlink.com 1.10,2014-01-12 19:27:00,
2014-01-12 14:42:00,81.5,63.0,30.09,NE,51,0.0,-999.0,53,-99.99,,,0.00,506,weatherlink.com 1.10,2014-01-12 19:42:00,
2014-01-12 14:57:00,82.1,63.0,30.09,NW,304,0.0,-999.0,52,-99.99,,,0.00,476,weatherlink.com 1.10,2014-01-12 19:57:00,
2014-01-12 15:12:00,81.7,63.0,30.09,West,275,0.0,-999.0,53,-99.99,,,0.00,441,weatherlink.com 1.10,2014-01-12 20:12:00,
2014-01-12 15:27:00,81.2,62.0,30.09,WNW,299,0.0,-999.0,53,-99.99,,,0.00,403,weatherlink.com 1.10,2014-01-12 20:27:00,
2014-01-12 15:42:00,80.3,62.0,30.09,North,355,0.0,-999.0,53,-99.99,,,0.00,364,weatherlink.com 1.10,2014-01-12 20:42:00,
2014-01-12 15:57:00,80.5,62.0,30.09,NW,305,0.0,-999.0,53,-99.99,,,0.00,323,weatherlink.com 1.10,2014-01-12 20:57:00,
2014-01-12 16:12:00,80.1,61.0,30.10,NW,309,0.0,-999.0,53,-99.99,,,0.00,279,weatherlink.com 1.10,2014-01-12 21:12:00,
2014-01-12 16:27:00,78.2,60.0,30.10,NW,325,0.0,-999.0,54,-99.99,,,0.00,47,weatherlink.com 1.10,2014-01-12 21:27:00,
2014-01-12 16:42:00,75.6,61.0,30.11,NNW,340,0.0,-999.0,60,-99.99,,,0.00,28,weatherlink.com 1.10,2014-01-12 21:42:00,
2014-01-12 16:57:00,73.4,60.0,30.11,WNW,294,0.0,-999.0,64,-99.99,,,0.00,26,weatherlink.com 1.10,2014-01-12 21:57:00,
2014-01-12 17:12:00,72.1,61.0,30.11,WNW,299,0.0,-999.0,67,-99.99,,,0.00,21,weatherlink.com 1.10,2014-01-12 22:12:00,
2014-01-12 17:27:00,71.1,61.0,30.11,WNW,289,3.0,-999.0,70,-99.99,,,0.00,16,weatherlink.com 1.10,2014-01-12 22:27:00,
2014-01-12 17:42:00,70.1,61.0,30.12,WNW,300,0.0,-999.0,72,-99.99,,,0.00,11,weatherlink.com 1.10,2014-01-12 22:42:00,
2014-01-12 17:57:00,69.3,61.0,30.12,WNW,300,0.0,-999.0,75,-99.99,,,0.00,0,weatherlink.com 1.10,2014-01-12 22:57:00,
2014-01-12 18:12:00,68.6,61.0,30.12,WNW,300,0.0,-999.0,77,-99.99,,,0.00,0,weatherlink.com 1.10,2014-01-12 23:12:00,
2014-01-12 18:28:00,67.9,61.5,30.12,WNW,300,0.0,1.0,80,0.00,,,0.00,0,Wunderground v.1.15,2014-01-12 23:28:00,
2014-01-12 18:42:00,67.3,61.0,30.12,WNW,300,0.0,-999.0,81,-99.99,,,0.00,0,weatherlink.com 1.10,2014-01-12 23:42:00,
2014-01-12 18:57:00,66.8,61.0,30.13,WNW,300,0.0,-999.0,81,-99.99,,,0.00,0,weatherlink.com 1.10,2014-01-12 23:57:00,
2014-01-12 19:12:00,66.2,61.0,30.13,WNW,300,0.0,-999.0,82,-99.99,,,0.00,0,weatherlink.com 1.10,2014-01-13 00:12:00,
2014-01-12 19:27:00,65.9,61.0,30.14,WNW,300,0.0,-999.0,83,-99.99,,,0.00,0,weatherlink.com 1.10,2014-01-13 00:27:00,
2014-01-12 19:42:00,66.4,60.0,30.15,WNW,300,0.0,-999.0,80,-99.99,,,0.00,0,weatherlink.com 1.10,2014-01-13 00:42:00,
2014-01-12 19:57:00,66.4,59.0,30.15,WNW,303,0.0,-999.0,78,-99.99,,,0.00,0,weatherlink.com 1.10,2014-01-13 00:57:00,
2014-01-12 20:12:00,66.2,59.0,30.15,WNW,303,0.0,-999.0,78,-99.99,,,0.00,0,weatherlink.com 1.10,2014-01-13 01:12:00,
2014-01-12 20:27:00,65.8,59.0,30.16,WNW,303,0.0,-999.0,78,-99.99,,,0.00,0,weatherlink.com 1.10,2014-01-13 01:27:00,
2014-01-12 20:42:00,65.6,59.0,30.16,WNW,303,0.0,-999.0,78,-99.99,,,0.00,0,weatherlink.com 1.10,2014-01-13 01:42:00,
2014-01-12 20:58:00,65.4,58.0,30.16,NW,304,0.0,-999.0,78,-99.99,,,0.00,0,weatherlink.com 1.10,2014-01-13 01:58:00,
2014-01-12 21:13:00,65.2,58.0,30.16,NNE,33,0.0,-999.0,78,-99.99,,,0.00,0,weatherlink.com 1.10,2014-01-13 02:13:00,
2014-01-12 21:27:00,64.8,58.0,30.16,NNE,33,0.0,-999.0,79,-99.99,,,0.00,0,weatherlink.com 1.10,2014-01-13 02:27:00,
2014-01-12 21:43:00,64.3,58.0,30.16,NE,34,0.0,-999.0,80,-99.99,,,0.00,0,weatherlink.com 1.10,2014-01-13 02:43:00,
2014-01-12 21:58:00,63.8,58.0,30.17,NE,34,0.0,-999.0,81,-99.99,,,0.00,0,weatherlink.com 1.10,2014-01-13 02:58:00,
2014-01-12 22:13:00,63.5,58.0,30.16,ENE,57,0.0,-999.0,82,-99.99,,,0.00,0,weatherlink.com 1.10,2014-01-13 03:13:00,
2014-01-12 22:27:00,63.0,58.0,30.16,ENE,57,0.0,-999.0,83,-99.99,,,0.00,0,weatherlink.com 1.10,2014-01-13 03:27:00,
2014-01-12 22:42:00,62.6,58.0,30.16,ENE,58,0.0,-999.0,84,-99.99,,,0.00,0,weatherlink.com 1.10,2014-01-13 03:42:00,
2014-01-12 22:58:00,62.4,58.0,30.16,NE,55,0.0,-999.0,84,-99.99,,,0.00,0,weatherlink.com 1.10,2014-01-13 03:58:00,
2014-01-12 23:13:00,62.2,58.0,30.16,ENE,60,0.0,-999.0,85,-99.99,,,0.00,0,weatherlink.com 1.10,2014-01-13 04:13:00,
2014-01-12 23:28:00,62.0,58.0,30.16,ENE,61,0.0,-999.0,85,-99.99,,,0.00,0,weatherlink.com 1.10,2014-01-13 04:28:00,
2014-01-12 23:43:00,61.8,57.0,30.16,ENE,58,0.0,-999.0,85,-99.99,,,0.00,0,weatherlink.com 1.10,2014-01-13 04:43:00,
2014-01-12 23:58:00,61.6,57.0,30.15,ENE,63,0.0,-999.0,85,-99.99,,,0.00,0,weatherlink.com 1.10,2014-01-13 04:58:00,